Retour au catalogue

STARLINK-35693

ActifCommunicationsVLEO
NORAD 66490·PAYLOAD·🇺🇸 United States

Lancé Nov 15, 2025 depuis Cape Canaveral Space Force Station

Loading…

Prochains Passages (prochaines 24 heures)

TLE

FraisSource: CelesTrak SupGP

Époque: Sep 15, 2026, 04:05 UTC

1 66490C 25263F   26258.17062500  .00045642  00000+0  16530-2 0  2582
2 66490  43.0032   0.3647 0001449 262.1764 342.2225 15.27558203    14

Suivez STARLINK-35693 en temps réel avec AllMySat

Download on the App Store